Simultaneous Nadir Overpasses (SNOs) Predictions

Prediction of SNOs between GOES-16 and METOP-B Satellite Orbit:

Table of predicted SNOs for the next 14.0 days since TLE Epoch: 7/11/2025
Index Date Time (GOES-16) GOES-16 Lat,Lon METOP-B Lat,Lon Distance(km) Time Diff (sec)
1 07/14/2025 04:05:41 -0.00,-104.70 -0.05,-104.95 28.90 80
2 07/16/2025 16:03:58 -0.01,-104.73 -0.02,-104.57 17.40 80
3 07/19/2025 03:59:42 -0.01,-104.70 0.08,-104.22 54.00 80
4 07/20/2025 16:18:38 0.00,-104.72 0.90,-108.82 467.36 80
5 07/21/2025 16:00:40 0.00,-104.71 -0.22,-103.85 99.29 80
6 07/23/2025 04:19:42 0.00,-104.68 -0.84,-108.47 431.73 80
7 07/24/2025 03:56:25 0.00,-104.68 0.28,-103.50 135.01 80
8 07/25/2025 16:15:19 -0.00,-104.70 0.75,-108.09 385.98 80
